Location: Copeville
(33.0796°N, 96.4155°W)
Time: 16:40:27
(UTC+00:00)

Hubble Space Telescope - Visible Passes

Search period start: 08 December 2022 00:00
Search period end: 18 December 2022 00:00
Orbit: 530 x 534 km, 28.5° (Epoch: 08 December)

Date Brightness Start Highest point End Pass type
(mag) Time Alt. Az. Time Alt. Az. Time Alt. Az.
08 Dec 2.5 11:24:38 21° SSW 11:25:55 25° SSE 11:29:18 10° ESE visible
09 Dec 2.2 11:13:02 28° S 11:13:12 29° SSE 11:16:45 10° ESE visible
10 Dec 2.4 11:01:19 29° SE 11:01:19 29° SE 11:04:08 10° ESE visible
10 Dec 1.7 12:37:20 10° WSW 12:41:13 43° S 12:45:07 10° ESE visible
11 Dec 2.9 10:49:31 24° ESE 10:49:31 24° ESE 10:51:30 10° ESE visible
11 Dec 1.6 12:24:44 11° WSW 12:28:31 43° S 12:32:24 10° ESE visible
12 Dec 3.4 10:37:39 18° ESE 10:37:39 18° ESE 10:38:51 10° ESE visible
12 Dec 1.7 12:12:52 16° WSW 12:15:48 41° S 12:19:40 10° ESE visible
13 Dec 3.9 10:25:45 12° ESE 10:25:45 12° ESE 10:26:10 10° ESE visible
13 Dec 1.7 12:00:58 22° WSW 12:03:05 39° S 12:06:54 10° ESE visible
14 Dec 1.8 11:49:02 28° SW 11:50:20 36° S 11:54:06 10° ESE visible
15 Dec 1.8 11:37:05 31° SSW 11:37:36 32° SSW 11:41:16 10° SE visible
16 Dec 2.1 11:25:08 29° S 11:25:08 29° S 11:28:24 10° SE visible
17 Dec 2.6 11:13:11 23° S 11:13:11 23° S 11:15:29 10° SE visible
